Doylestown, PA

8:23 AM EST on December 06, 2019 (GMT -0500)
Doylestown

Weather History for KDYL - October, 2019

Change the Weather History Date:

Wednesday, October 23, 2019

  Actual Average (WUND) Record (WUND)
Temperature  
Mean Temperature 57 °F -  
Max Temperature 66 °F - - (-1)
Min Temperature 46 °F - - (-1)
Degree Days  
Heating Degree Days 8    
Growing Degree Days 7 (Base 50)    
Moisture  
Dew Point 44 °F    
Average Humidity 65    
Maximum Humidity 93    
Minimum Humidity 33    
Precipitation  
Precipitation 0.00 in - - ()
Sea Level Pressure  
Sea Level Pressure 29.97 in    
Wind  
Wind Speed 5 mph (WNW)    
Max Wind Speed 13 mph    
Max Gust Speed 24 mph    
Visibility 10 miles    
Events      
Averages and records for this station are not official NWS values.
T = Trace of Precipitation, MM = Missing Value Source: NWS Daily Summary

Daily Weather History Graph

Daily Weather History Graph

Search for Another Location

Airport or City:

Astronomy

Oct. 23, 2019 Rise Set
Actual Time 7:19 AM EDT 6:09 PM EDT
Civil Twilight 6:51 AM EDT 6:37 PM EDT
Nautical Twilight 6:20 AM EDT 7:08 PM EDT
Astronomical Twilight 5:48 AM EDT 7:40 PM EDT
Moon 1:34 AM EDT (10/23) 3:59 PM EDT (10/23)
Length of Visible Light 11h 45m
Length of Day
10h 49m
Waning Crescent, 27% of the Moon is Illuminated
Oct 23
Waning Crescent
Oct 27
New
Nov 4
First Quarter
Nov 12
Full
Nov 19
Last Quarter

Hourly Weather History & Observations

Time (EDT) Temp. Dew Point Humidity Pressure Visibility Wind Dir Wind Speed Gust Speed Precip Events Conditions
12:46 AM 61.0 °F 57.9 °F 90% 29.80 in 10.0 mi WNW 4.6 mph - N/A   Overcast
12:54 AM 60.1 °F 57.9 °F 93% 29.80 in 10.0 mi West 4.6 mph - N/A   Mostly Cloudy
1:54 AM 59.0 °F 55.9 °F 90% 29.80 in 10.0 mi NW 8.1 mph - N/A   Mostly Cloudy
2:54 AM 57.0 °F 54.0 °F 89% 29.80 in 10.0 mi Calm Calm - N/A   Clear
3:54 AM 55.0 °F 52.0 °F 89% 29.81 in 10.0 mi Variable 4.6 mph - N/A   Clear
4:54 AM 54.0 °F 51.1 °F 90% 29.83 in 10.0 mi WNW 5.8 mph - N/A   Clear
5:54 AM 54.0 °F 50.0 °F 86% 29.86 in 10.0 mi West 4.6 mph - N/A   Clear
6:54 AM 52.0 °F 48.9 °F 89% 29.90 in 10.0 mi Variable 3.5 mph - N/A   Clear
7:54 AM 51.1 °F 48.0 °F 89% 29.92 in 10.0 mi Calm Calm - N/A   Clear
8:54 AM 55.0 °F 48.0 °F 77% 29.96 in 10.0 mi West 8.1 mph - N/A   Clear
9:54 AM 59.0 °F 48.0 °F 67% 29.97 in 10.0 mi West 5.8 mph - N/A   Clear
10:54 AM 62.1 °F 46.0 °F 56% 29.98 in 10.0 mi Variable 5.8 mph - N/A   Clear
11:54 AM 63.0 °F 41.0 °F 45% 30.00 in 10.0 mi WNW 12.7 mph 24.2 mph N/A   Partly Cloudy
12:54 PM 64.9 °F 39.9 °F 40% 29.99 in 10.0 mi WNW 8.1 mph 16.1 mph N/A   Partly Cloudy
1:54 PM 66.0 °F 37.0 °F 34% 29.99 in 10.0 mi WNW 9.2 mph 17.3 mph N/A   Clear
2:54 PM 66.0 °F 36.0 °F 33% 29.99 in 10.0 mi West 9.2 mph 19.6 mph N/A   Clear
3:54 PM 64.9 °F 37.0 °F 36% 30.01 in 10.0 mi WNW 9.2 mph 19.6 mph N/A   Clear
4:54 PM 64.0 °F 35.1 °F 34% 30.02 in 10.0 mi WNW 12.7 mph 20.7 mph N/A   Clear
5:54 PM 61.0 °F 35.1 °F 38% 30.04 in 10.0 mi West 6.9 mph - N/A   Clear
6:54 PM 57.0 °F 36.0 °F 45% 30.09 in 10.0 mi WSW 3.5 mph - N/A   Clear
7:54 PM 53.1 °F 37.0 °F 55% 30.12 in 10.0 mi Calm Calm - N/A   Clear
8:54 PM 48.9 °F 39.9 °F 71% 30.15 in 10.0 mi Calm Calm - N/A   Clear
9:54 PM 48.9 °F 39.0 °F 69% 30.17 in 10.0 mi Calm Calm - N/A   Clear
11:54 PM 46.9 °F 35.1 °F 63% 30.20 in 10.0 mi Calm Calm - N/A   Clear